Powrót do katalogu

STARLINK-5635

AktywnyŁącznośćVLEO
NORAD 55367·PAYLOAD·🇺🇸 United States

Wystrzelony Jan 26, 2023 z Cape Canaveral Space Force Station

Loading…

Następne Przeloty (najbliższe 24 godziny)

TLE

ŚwieżeSource: CelesTrak SupGP

Epoka: Sep 14, 2026, 20:50 UTC

1 55367C 23013AN  26257.86854167 -.00045864  00000+0 -16613-2 0  2576
2 55367  43.0000 300.5435 0001565 266.6030  71.8919 15.27598132    14

Śledź STARLINK-5635 w czasie rzeczywistym z AllMySat

Download on the App Store